Regional Weather Roundup
Issued by NWS

Home | Current Version | Previous Version | Text Only | Print | Product List | Glossary Off
Versions: 1 2 3 4 5 6 7 8 9 10 11 12 13 14 15 16 17 18 19 20 21 22 23 24 25 26 27 28 29 30 31 32 33 34 35 36 37 38 39 40 41 42 43 44 45 46 47 48 49 50

000
ASUS43 KLMK 020702
RWRKY
KENTUCKY REGIONAL WEATHER ROUNDUP
NATIONAL WEATHER SERVICE LOUISVILLE KY
300 AM EDT THU JUL 02 2015

NOTE "FAIR" INDICATES FEW OR NO CLOUDS BELOW 12,000 FEET
WITH NO SIGNIFICANT WEATHER AND/OR OBSTRUCTIONS TO VISIBILITY.

KYZ001>023-026-027-061>063-070>075-020800-
WESTERN AND SOUTH CENTRAL KENTUCKY

CITY           SKY/WX    TMP DP  RH WIND       PRES   REMARKS
PADUCAH        LGT RAIN  72  69  90 SW3       29.86F
HENDERSON      CLOUDY    72  68  88 S6        29.84F
OWENSBORO      TSTM      72  71  96 CALM      29.86F FOG
HOPKINSVILLE   CLOUDY    71  70  94 W2        29.90S
BOWLING GREEN  CLOUDY    70  67  90 SE7       29.90F THUNDER
GLASGOW        NOT AVBL
$$

KYZ024-025-028>034-038-045-046-053-020800-
NORTH CENTRAL KENTUCKY

CITY           SKY/WX    TMP DP  RH WIND       PRES   REMARKS
LOUISVILLE/SDF LGT RAIN  73  70  90 W5        29.89F
LOUISVILLE/LOU RAIN      71  70  96 CALM      29.91F FOG
FORT KNOX      CLOUDY    70  68  94 SW3       29.88F
$$

KYZ035>037-039>044-047>052-055>060-089>105-020800-
NORTHEAST KENTUCKY

CITY           SKY/WX    TMP DP  RH WIND       PRES   REMARKS
LEXINGTON      CLOUDY    69  67  93 SW5       29.93F FOG
COVINGTON      CLOUDY    69  66  90 CALM      29.91F FOG
FRANKFORT      CLOUDY    70  67  90 SW5       29.91F FOG
$$

KYZ054-064>069-076>088-106>120-020800-
SOUTHEAST KENTUCKY

CITY           SKY/WX    TMP DP  RH WIND       PRES   REMARKS
JACKSON        CLOUDY    68  65  90 CALM      29.96S
LONDON         MOCLDY    67  62  84 S3        29.98F HAZE
SOMERSET       NOT AVBL
MIDDLESBORO    NOT AVBL
MONTICELLO     MOSUNNY   66  66 100 CALM      29.99S FOG
$$




USA.gov is the U.S. government's official web portal to all federal, state and local government web resources and services.